Year,Month,Day,Hour,Minute,Value (Times are PST for windspeed in km/hr)
2010,06,02,00,00,5.50
2010,06,02,00,01,6.40
2010,06,02,00,02,5.70
2010,06,02,00,03,7.00
2010,06,02,00,04,6.30
2010,06,02,00,05,3.90
2010,06,02,00,06,4.10
2010,06,02,00,07,6.10
2010,06,02,00,08,4.20
2010,06,02,00,09,6.50
2010,06,02,00,10,5.60
2010,06,02,00,11,6.50
2010,06,02,00,12,7.90
2010,06,02,00,13,6.00
2010,06,02,00,14,7.70
2010,06,02,00,15,8.10
2010,06,02,00,16,4.80
2010,06,02,00,17,3.90
2010,06,02,00,18,7.90
2010,06,02,00,19,3.10
2010,06,02,00,20,6.20
2010,06,02,00,21,6.60
2010,06,02,00,22,6.80
2010,06,02,00,23,7.00
2010,06,02,00,24,8.40
2010,06,02,00,25,8.70
2010,06,02,00,26,4.80
2010,06,02,00,27,3.30
2010,06,02,00,28,7.00
2010,06,02,00,29,2.20
2010,06,02,00,30,2.40
2010,06,02,00,31,5.60
2010,06,02,00,32,3.50
2010,06,02,00,33,6.30
2010,06,02,00,34,3.80
2010,06,02,00,35,4.40
2010,06,02,00,36,4.80
2010,06,02,00,37,3.70
2010,06,02,00,38,1.90
2010,06,02,00,39,4.10
2010,06,02,00,40,3.70
2010,06,02,00,41,2.30
2010,06,02,00,42,1.50
2010,06,02,00,43,5.40
2010,06,02,00,44,2.50
2010,06,02,00,45,4.50
2010,06,02,00,46,6.80
2010,06,02,00,47,1.60
2010,06,02,00,48,1.20
2010,06,02,00,49,4.90
2010,06,02,00,50,3.80
2010,06,02,00,51,5.80
2010,06,02,00,52,6.10
2010,06,02,00,53,5.20
2010,06,02,00,54,1.80
2010,06,02,00,55,6.30
2010,06,02,00,56,3.80
2010,06,02,00,57,1.20
2010,06,02,00,58,1.00
2010,06,02,00,59,2.20
2010,06,02,01,00,1.10
2010,06,02,01,01,3.90
2010,06,02,01,02,6.90
2010,06,02,01,03,5.00
2010,06,02,01,04,0.10
2010,06,02,01,05,0.90
2010,06,02,01,06,3.90
2010,06,02,01,07,1.50
2010,06,02,01,08,4.10
2010,06,02,01,09,2.70
2010,06,02,01,10,4.70
2010,06,02,01,11,3.70
2010,06,02,01,12,4.50
2010,06,02,01,13,2.40
2010,06,02,01,14,6.50
2010,06,02,01,15,4.20
2010,06,02,01,16,2.60
2010,06,02,01,17,8.40
2010,06,02,01,18,6.50
2010,06,02,01,19,3.10
2010,06,02,01,20,3.80
2010,06,02,01,21,2.90
2010,06,02,01,22,5.10
2010,06,02,01,23,5.00
2010,06,02,01,24,2.30
2010,06,02,01,25,3.50
2010,06,02,01,26,0.40
2010,06,02,01,27,0.20
2010,06,02,01,28,2.30
2010,06,02,01,29,5.20
2010,06,02,01,30,2.80
2010,06,02,01,31,2.70
2010,06,02,01,32,3.20
2010,06,02,01,33,3.50
2010,06,02,01,34,3.20
2010,06,02,01,35,2.80
2010,06,02,01,36,1.40
2010,06,02,01,37,1.90
2010,06,02,01,38,3.80
2010,06,02,01,39,1.80
2010,06,02,01,40,0.70
2010,06,02,01,41,0.30
2010,06,02,01,42,0.60
2010,06,02,01,43,0.20
2010,06,02,01,44,1.60
2010,06,02,01,45,1.40
2010,06,02,01,46,3.60
2010,06,02,01,47,3.90
2010,06,02,01,48,3.90
2010,06,02,01,49,6.20
2010,06,02,01,50,6.50
2010,06,02,01,51,4.50
2010,06,02,01,52,5.30
2010,06,02,01,53,5.50
2010,06,02,01,54,4.50
2010,06,02,01,55,5.50
2010,06,02,01,56,6.40
2010,06,02,01,57,7.10
2010,06,02,01,58,8.60
2010,06,02,01,59,6.80
2010,06,02,02,00,2.10
2010,06,02,02,01,4.00
2010,06,02,02,02,4.80
2010,06,02,02,03,8.80
2010,06,02,02,04,9.50
2010,06,02,02,05,9.50
2010,06,02,02,06,7.20
2010,06,02,02,07,6.80
2010,06,02,02,08,8.80
2010,06,02,02,09,6.10
2010,06,02,02,10,6.20
2010,06,02,02,11,6.20
2010,06,02,02,12,5.30
2010,06,02,02,13,5.60
2010,06,02,02,14,5.30
2010,06,02,02,15,6.40
2010,06,02,02,16,6.40
2010,06,02,02,17,6.90
2010,06,02,02,18,7.40
2010,06,02,02,19,7.20
2010,06,02,02,20,7.50
2010,06,02,02,21,5.90
2010,06,02,02,22,9.90
2010,06,02,02,23,7.90
2010,06,02,02,24,8.70
2010,06,02,02,25,6.30
2010,06,02,02,26,6.20
2010,06,02,02,27,5.30
2010,06,02,02,28,1.40
2010,06,02,02,29,3.60
2010,06,02,02,30,1.50
2010,06,02,02,31,0.90
2010,06,02,02,32,1.10
2010,06,02,02,33,3.10
2010,06,02,02,34,2.70
2010,06,02,02,35,4.40
2010,06,02,02,36,3.90
2010,06,02,02,37,1.40
2010,06,02,02,38,0.80
2010,06,02,02,39,0.50
2010,06,02,02,40,1.30
2010,06,02,02,41,0.00
2010,06,02,02,42,0.10
2010,06,02,02,43,0.00
2010,06,02,02,44,0.20
2010,06,02,02,45,0.10
2010,06,02,02,46,1.40
2010,06,02,02,47,1.30
2010,06,02,02,48,0.60
2010,06,02,02,49,0.00
2010,06,02,02,50,0.00
2010,06,02,02,51,0.60
2010,06,02,02,52,0.20
2010,06,02,02,53,0.00
2010,06,02,02,54,0.20
2010,06,02,02,55,1.40
2010,06,02,02,56,0.10
2010,06,02,02,57,0.00
2010,06,02,02,58,0.00
2010,06,02,02,59,0.00
2010,06,02,03,00,0.00
2010,06,02,03,01,0.00
2010,06,02,03,02,0.00
2010,06,02,03,03,0.00
2010,06,02,03,04,0.00
2010,06,02,03,05,0.00
2010,06,02,03,06,0.00
2010,06,02,03,07,0.00
2010,06,02,03,08,0.00
2010,06,02,03,09,0.00
2010,06,02,03,10,1.30
2010,06,02,03,11,3.30
2010,06,02,03,12,2.10
2010,06,02,03,13,0.20
2010,06,02,03,14,2.10
2010,06,02,03,15,6.00
2010,06,02,03,16,8.20
2010,06,02,03,17,7.90
2010,06,02,03,18,7.20
2010,06,02,03,19,5.70
2010,06,02,03,20,4.20
2010,06,02,03,21,3.00
2010,06,02,03,22,0.10
2010,06,02,03,23,0.40
2010,06,02,03,24,0.60
2010,06,02,03,25,1.10
2010,06,02,03,26,1.20
2010,06,02,03,27,2.10
2010,06,02,03,28,1.50
2010,06,02,03,29,0.20
2010,06,02,03,30,0.30
2010,06,02,03,31,0.10
2010,06,02,03,32,0.00
2010,06,02,03,33,0.00
2010,06,02,03,34,0.30
2010,06,02,03,35,0.70
2010,06,02,03,36,1.00
2010,06,02,03,37,0.30
2010,06,02,03,38,0.60
2010,06,02,03,39,1.30
2010,06,02,03,40,0.70
2010,06,02,03,41,0.70
2010,06,02,03,42,0.80
2010,06,02,03,43,2.10
2010,06,02,03,44,0.40
2010,06,02,03,45,1.40
2010,06,02,03,46,1.30
2010,06,02,03,47,0.00
2010,06,02,03,48,0.10
2010,06,02,03,49,0.40
2010,06,02,03,50,0.60
2010,06,02,03,51,1.20
2010,06,02,03,52,2.10
2010,06,02,03,53,2.40
2010,06,02,03,54,0.10
2010,06,02,03,55,1.30
2010,06,02,03,56,0.10
2010,06,02,03,57,1.40
2010,06,02,03,58,2.50
2010,06,02,03,59,6.00
2010,06,02,04,00,3.10
2010,06,02,04,01,3.00
2010,06,02,04,02,2.80
2010,06,02,04,03,2.60
2010,06,02,04,04,0.50
2010,06,02,04,05,1.30
2010,06,02,04,06,0.70
2010,06,02,04,07,0.50
2010,06,02,04,08,0.00
2010,06,02,04,09,0.50
2010,06,02,04,10,0.10
2010,06,02,04,11,0.80
2010,06,02,04,12,0.00
2010,06,02,04,13,0.30
2010,06,02,04,14,1.40
2010,06,02,04,15,0.50
2010,06,02,04,16,0.00
2010,06,02,04,17,0.20
2010,06,02,04,18,0.10
2010,06,02,04,19,0.00
2010,06,02,04,20,1.50
2010,06,02,04,21,0.00
2010,06,02,04,22,1.20
2010,06,02,04,23,0.50
2010,06,02,04,24,0.70
2010,06,02,04,25,0.20
2010,06,02,04,26,0.00
2010,06,02,04,27,0.40
2010,06,02,04,28,0.10
2010,06,02,04,29,1.40
2010,06,02,04,30,0.30
2010,06,02,04,31,0.50
2010,06,02,04,32,0.60
2010,06,02,04,33,1.50
2010,06,02,04,34,0.90
2010,06,02,04,35,0.40
2010,06,02,04,36,1.50
2010,06,02,04,37,0.30
2010,06,02,04,38,0.00
2010,06,02,04,39,1.00
2010,06,02,04,40,1.50
2010,06,02,04,41,0.00
2010,06,02,04,42,0.30
2010,06,02,04,43,1.00
2010,06,02,04,44,0.20
2010,06,02,04,45,0.40
2010,06,02,04,46,0.30
2010,06,02,04,47,0.10
2010,06,02,04,48,0.10
2010,06,02,04,49,0.30
2010,06,02,04,50,0.10
2010,06,02,04,51,0.20
2010,06,02,04,52,0.00
2010,06,02,04,53,0.10
2010,06,02,04,54,0.80
2010,06,02,04,55,0.20
2010,06,02,04,56,0.10
2010,06,02,04,57,0.00
2010,06,02,04,58,0.00
2010,06,02,04,59,0.00
2010,06,02,05,00,0.00
2010,06,02,05,01,0.00
2010,06,02,05,02,0.00
2010,06,02,05,03,1.50
2010,06,02,05,04,1.80
2010,06,02,05,05,1.50
2010,06,02,05,06,1.60
2010,06,02,05,07,0.00
2010,06,02,05,08,0.00
2010,06,02,05,09,1.50
2010,06,02,05,10,0.90
2010,06,02,05,11,0.40
2010,06,02,05,12,4.00
2010,06,02,05,13,1.50
2010,06,02,05,14,0.80
2010,06,02,05,15,1.10
2010,06,02,05,16,1.10
2010,06,02,05,17,1.70
2010,06,02,05,18,2.90
2010,06,02,05,19,5.10
2010,06,02,05,20,6.50
2010,06,02,05,21,7.00
2010,06,02,05,22,2.10
2010,06,02,05,23,2.70
2010,06,02,05,24,2.90
2010,06,02,05,25,4.60
2010,06,02,05,26,7.00
2010,06,02,05,27,3.60
2010,06,02,05,28,0.90
2010,06,02,05,29,3.50
2010,06,02,05,30,1.80
2010,06,02,05,31,1.90
2010,06,02,05,32,0.40
2010,06,02,05,33,2.10
2010,06,02,05,34,3.90
2010,06,02,05,35,2.60
2010,06,02,05,36,4.20
2010,06,02,05,37,6.10
2010,06,02,05,38,6.00
2010,06,02,05,39,4.80
2010,06,02,05,40,5.20
2010,06,02,05,41,4.20
2010,06,02,05,42,5.00
2010,06,02,05,43,6.20
2010,06,02,05,44,7.80
2010,06,02,05,45,7.40
2010,06,02,05,46,9.70
2010,06,02,05,47,7.20
2010,06,02,05,48,8.30
2010,06,02,05,49,7.40
2010,06,02,05,50,4.30
2010,06,02,05,51,4.80
2010,06,02,05,52,6.60
2010,06,02,05,53,7.90
2010,06,02,05,54,5.10
2010,06,02,05,55,7.30
2010,06,02,05,56,8.40
2010,06,02,05,57,4.80
2010,06,02,05,58,2.40
2010,06,02,05,59,2.00
2010,06,02,06,00,3.40
2010,06,02,06,01,3.40
2010,06,02,06,02,3.60
2010,06,02,06,03,4.70
2010,06,02,06,04,5.70
2010,06,02,06,05,5.10
2010,06,02,06,06,1.80
2010,06,02,06,07,1.00
2010,06,02,06,08,5.50
2010,06,02,06,09,1.60
2010,06,02,06,10,0.60
2010,06,02,06,11,1.40
2010,06,02,06,12,4.60
2010,06,02,06,13,4.30
2010,06,02,06,14,0.20
2010,06,02,06,15,1.40
2010,06,02,06,16,1.40
2010,06,02,06,17,1.10
2010,06,02,06,18,1.70
2010,06,02,06,19,2.20
2010,06,02,06,20,1.70
2010,06,02,06,21,1.30
2010,06,02,06,22,1.50
2010,06,02,06,23,1.30
2010,06,02,06,24,0.10
2010,06,02,06,25,1.30
2010,06,02,06,26,0.00
2010,06,02,06,27,2.50
2010,06,02,06,28,4.10
2010,06,02,06,29,5.50
2010,06,02,06,30,6.50
2010,06,02,06,31,6.00
2010,06,02,06,32,4.70
2010,06,02,06,33,4.90
2010,06,02,06,34,5.00
2010,06,02,06,35,4.70
2010,06,02,06,36,4.80
2010,06,02,06,37,3.50
2010,06,02,06,38,4.40
2010,06,02,06,39,4.40
2010,06,02,06,40,4.60
2010,06,02,06,41,4.30
2010,06,02,06,42,7.10
2010,06,02,06,43,3.10
2010,06,02,06,44,5.40
2010,06,02,06,45,4.60
2010,06,02,06,46,2.50
2010,06,02,06,47,3.10
2010,06,02,06,48,2.50
2010,06,02,06,49,0.60
2010,06,02,06,50,2.30
2010,06,02,06,51,1.60
2010,06,02,06,52,2.70
2010,06,02,06,53,4.00
2010,06,02,06,54,1.80
2010,06,02,06,55,2.50
2010,06,02,06,56,3.90
2010,06,02,06,57,2.60
2010,06,02,06,58,1.70
2010,06,02,06,59,2.90
2010,06,02,07,00,2.70
2010,06,02,07,01,7.00
2010,06,02,07,02,7.00
2010,06,02,07,03,6.80
2010,06,02,07,04,6.20
2010,06,02,07,05,5.30
2010,06,02,07,06,3.90
2010,06,02,07,07,2.70
2010,06,02,07,08,3.30
2010,06,02,07,09,2.80
2010,06,02,07,10,0.40
2010,06,02,07,11,1.20
2010,06,02,07,12,0.00
2010,06,02,07,13,0.00
2010,06,02,07,14,0.10
2010,06,02,07,15,0.50
2010,06,02,07,16,0.00
2010,06,02,07,17,0.00
2010,06,02,07,18,0.00
2010,06,02,07,19,0.10
2010,06,02,07,20,0.20
2010,06,02,07,21,0.00
2010,06,02,07,22,0.00
2010,06,02,07,23,0.00
2010,06,02,07,24,0.60
2010,06,02,07,25,0.40
2010,06,02,07,26,0.10
2010,06,02,07,27,0.00
2010,06,02,07,28,0.00
2010,06,02,07,29,1.00
2010,06,02,07,30,2.10
2010,06,02,07,31,0.20
2010,06,02,07,32,0.00
2010,06,02,07,33,0.20
2010,06,02,07,34,0.40
2010,06,02,07,35,1.00
2010,06,02,07,36,4.80
2010,06,02,07,37,5.50
2010,06,02,07,38,3.00
2010,06,02,07,39,2.50
2010,06,02,07,40,2.30
2010,06,02,07,41,4.40
2010,06,02,07,42,5.60
2010,06,02,07,43,1.10
2010,06,02,07,44,0.80
2010,06,02,07,45,1.20
2010,06,02,07,46,1.20
2010,06,02,07,47,3.60
2010,06,02,07,48,0.60
2010,06,02,07,49,0.20
2010,06,02,07,50,0.40
2010,06,02,07,51,0.80
2010,06,02,07,52,2.90
2010,06,02,07,53,1.40
2010,06,02,07,54,2.60
2010,06,02,07,55,5.60
2010,06,02,07,56,3.90
2010,06,02,07,57,1.50
2010,06,02,07,58,1.90
2010,06,02,07,59,1.30
2010,06,02,08,00,0.20
2010,06,02,08,01,0.00
2010,06,02,08,02,0.50
2010,06,02,08,03,3.50
2010,06,02,08,04,3.70
2010,06,02,08,05,2.50
2010,06,02,08,06,1.90
2010,06,02,08,07,2.40
2010,06,02,08,08,3.30
2010,06,02,08,09,2.40
2010,06,02,08,10,0.10
2010,06,02,08,11,4.40
2010,06,02,08,12,4.20
2010,06,02,08,13,0.80
2010,06,02,08,14,5.90
2010,06,02,08,15,0.80
2010,06,02,08,16,4.00
2010,06,02,08,17,3.30
2010,06,02,08,18,6.60
2010,06,02,08,19,4.60
2010,06,02,08,20,5.40
2010,06,02,08,21,6.60
2010,06,02,08,22,7.80
2010,06,02,08,23,10.10
2010,06,02,08,24,4.90
2010,06,02,08,25,5.70
2010,06,02,08,26,8.50
2010,06,02,08,27,7.00
2010,06,02,08,28,7.40
2010,06,02,08,29,6.40
2010,06,02,08,30,4.80
2010,06,02,08,31,7.00
2010,06,02,08,32,5.70
2010,06,02,08,33,5.20
2010,06,02,08,34,5.60
2010,06,02,08,35,8.10
2010,06,02,08,36,9.50
2010,06,02,08,37,8.00
2010,06,02,08,38,10.20
2010,06,02,08,39,6.40
2010,06,02,08,40,7.00
2010,06,02,08,41,4.50
2010,06,02,08,42,6.40
2010,06,02,08,43,5.00
2010,06,02,08,44,6.00
2010,06,02,08,45,5.80
2010,06,02,08,46,8.20
2010,06,02,08,47,6.70
2010,06,02,08,48,5.40
2010,06,02,08,49,4.90
2010,06,02,08,50,8.10
2010,06,02,08,51,7.70
2010,06,02,08,52,4.70
2010,06,02,08,53,6.70
2010,06,02,08,54,8.30
2010,06,02,08,55,6.00
2010,06,02,08,56,7.10
2010,06,02,08,57,5.90
2010,06,02,08,58,4.60
2010,06,02,08,59,6.40
2010,06,02,09,00,8.30
2010,06,02,09,01,7.50
2010,06,02,09,02,6.40
2010,06,02,09,03,6.40
2010,06,02,09,04,4.70
2010,06,02,09,05,3.60
2010,06,02,09,06,3.90
2010,06,02,09,07,4.00
2010,06,02,09,08,4.30
2010,06,02,09,09,3.10
2010,06,02,09,10,3.40
2010,06,02,09,11,3.90
2010,06,02,09,12,2.00
2010,06,02,09,13,5.30
2010,06,02,09,14,2.00
2010,06,02,09,15,1.30
2010,06,02,09,16,0.30
2010,06,02,09,17,1.80
2010,06,02,09,18,1.90
2010,06,02,09,19,0.80
2010,06,02,09,20,0.30
2010,06,02,09,21,3.30
2010,06,02,09,22,4.30
2010,06,02,09,23,6.00
2010,06,02,09,24,7.40
2010,06,02,09,25,6.20
2010,06,02,09,26,5.70
2010,06,02,09,27,4.20
2010,06,02,09,28,3.50
2010,06,02,09,29,6.70
2010,06,02,09,30,6.40
2010,06,02,09,31,5.10
2010,06,02,09,32,5.40
2010,06,02,09,33,6.40
2010,06,02,09,34,5.90
2010,06,02,09,35,4.50
2010,06,02,09,36,4.10
2010,06,02,09,37,3.40
2010,06,02,09,38,2.60
2010,06,02,09,39,3.20
2010,06,02,09,40,0.70
2010,06,02,09,41,0.70
2010,06,02,09,42,2.50
2010,06,02,09,43,0.50
2010,06,02,09,44,1.50
2010,06,02,09,45,2.30
2010,06,02,09,46,1.00
2010,06,02,09,47,0.90
2010,06,02,09,48,2.80
2010,06,02,09,49,1.90
2010,06,02,09,50,0.20
2010,06,02,09,51,0.20
2010,06,02,09,52,1.50
2010,06,02,09,53,0.10
2010,06,02,09,54,0.10
2010,06,02,09,55,0.30
2010,06,02,09,56,0.00
2010,06,02,09,57,0.90
2010,06,02,09,58,0.90
2010,06,02,09,59,0.70
2010,06,02,10,00,0.20
2010,06,02,10,01,0.30
2010,06,02,10,02,0.80
2010,06,02,10,03,0.60
2010,06,02,10,04,0.00
2010,06,02,10,05,0.00
2010,06,02,10,06,2.80
2010,06,02,10,07,0.30
2010,06,02,10,08,0.00
2010,06,02,10,09,0.40
2010,06,02,10,10,2.30
2010,06,02,10,11,2.50
2010,06,02,10,12,0.10
2010,06,02,10,13,1.40
2010,06,02,10,14,1.10
2010,06,02,10,15,1.30
2010,06,02,10,16,2.40
2010,06,02,10,17,1.80
2010,06,02,10,18,3.20
2010,06,02,10,19,1.60
2010,06,02,10,20,1.70
2010,06,02,10,21,1.40
2010,06,02,10,22,1.70
2010,06,02,10,23,0.30
2010,06,02,10,24,0.50
2010,06,02,10,25,1.90
2010,06,02,10,26,1.00
2010,06,02,10,27,1.80
2010,06,02,10,28,1.70
2010,06,02,10,29,1.50
2010,06,02,10,30,1.80
2010,06,02,10,31,1.50
2010,06,02,10,32,0.30
2010,06,02,10,33,0.90
2010,06,02,10,34,0.60
2010,06,02,10,35,1.30
2010,06,02,10,36,1.60
2010,06,02,10,37,1.40
2010,06,02,10,38,0.30
2010,06,02,10,39,1.00
2010,06,02,10,40,2.40
2010,06,02,10,41,0.20
2010,06,02,10,42,0.10
2010,06,02,10,43,0.70
2010,06,02,10,44,0.00
2010,06,02,10,45,0.10
2010,06,02,10,46,0.90
2010,06,02,10,47,0.40
2010,06,02,10,48,0.30
2010,06,02,10,49,0.00
2010,06,02,10,50,0.30
2010,06,02,10,51,0.60
2010,06,02,10,52,1.10
2010,06,02,10,53,0.50
2010,06,02,10,54,0.20
2010,06,02,10,55,1.70
2010,06,02,10,56,1.40
2010,06,02,10,57,1.60
2010,06,02,10,58,1.50
2010,06,02,10,59,0.00
2010,06,02,11,00,0.00
2010,06,02,11,01,0.00
2010,06,02,11,02,0.00
2010,06,02,11,03,0.90
2010,06,02,11,04,2.10
2010,06,02,11,05,0.70
2010,06,02,11,06,0.80
2010,06,02,11,07,0.70
2010,06,02,11,08,0.30
2010,06,02,11,09,2.30
2010,06,02,11,10,3.10
2010,06,02,11,11,1.90
2010,06,02,11,12,2.90
2010,06,02,11,13,5.30
2010,06,02,11,14,2.40
2010,06,02,11,15,3.00
2010,06,02,11,16,1.20
2010,06,02,11,17,0.40
2010,06,02,11,18,0.40
2010,06,02,11,19,0.10
2010,06,02,11,20,1.40
2010,06,02,11,21,2.20
2010,06,02,11,22,0.50
2010,06,02,11,23,0.30
2010,06,02,11,24,0.00
2010,06,02,11,25,0.00
2010,06,02,11,26,0.00
2010,06,02,11,27,0.00
2010,06,02,11,28,0.00
2010,06,02,11,29,1.10
2010,06,02,11,30,3.30
2010,06,02,11,31,3.80
2010,06,02,11,32,0.90
2010,06,02,11,33,2.50
2010,06,02,11,34,4.30
2010,06,02,11,35,2.00
2010,06,02,11,36,1.50
2010,06,02,11,37,3.00
2010,06,02,11,38,2.40
2010,06,02,11,39,1.50
2010,06,02,11,40,2.20
2010,06,02,11,41,2.20
2010,06,02,11,42,2.20
2010,06,02,11,43,2.80
2010,06,02,11,44,1.60
2010,06,02,11,45,2.00
2010,06,02,11,46,3.90
2010,06,02,11,47,3.50
2010,06,02,11,48,2.10
2010,06,02,11,49,3.90
2010,06,02,11,50,2.60
2010,06,02,11,51,3.30
2010,06,02,11,52,0.60
2010,06,02,11,53,0.60
2010,06,02,11,54,1.30
2010,06,02,11,55,1.00
2010,06,02,11,56,1.30
2010,06,02,11,57,1.60
2010,06,02,11,58,1.50
2010,06,02,11,59,3.00
2010,06,02,12,00,0.90
2010,06,02,12,01,1.50
2010,06,02,12,02,1.50
2010,06,02,12,03,0.50
2010,06,02,12,04,0.80
2010,06,02,12,05,1.60
2010,06,02,12,06,1.60
2010,06,02,12,07,2.60
2010,06,02,12,08,2.50
2010,06,02,12,09,3.60
2010,06,02,12,10,2.60
2010,06,02,12,11,5.90
2010,06,02,12,12,3.90
2010,06,02,12,13,6.10
2010,06,02,12,14,6.60
2010,06,02,12,15,5.90
2010,06,02,12,16,2.80
2010,06,02,12,17,1.80
2010,06,02,12,18,3.60
2010,06,02,12,19,3.00
2010,06,02,12,20,5.30
2010,06,02,12,21,4.70
2010,06,02,12,22,6.30
2010,06,02,12,23,5.00
2010,06,02,12,24,1.60
2010,06,02,12,25,4.20
2010,06,02,12,26,4.70
2010,06,02,12,27,3.50
2010,06,02,12,28,1.40
2010,06,02,12,29,4.40
2010,06,02,12,30,4.90
2010,06,02,12,31,2.70
2010,06,02,12,32,4.30
2010,06,02,12,33,6.10
2010,06,02,12,34,5.80
2010,06,02,12,35,6.70
2010,06,02,12,36,6.40
2010,06,02,12,37,8.10
2010,06,02,12,38,8.10
2010,06,02,12,39,8.20
2010,06,02,12,40,5.60
2010,06,02,12,41,8.60
2010,06,02,12,42,6.00
2010,06,02,12,43,9.10
2010,06,02,12,44,6.80
2010,06,02,12,45,7.90
2010,06,02,12,46,7.90
2010,06,02,12,47,6.30
2010,06,02,12,48,7.90
2010,06,02,12,49,9.70
2010,06,02,12,50,8.60
2010,06,02,12,51,8.50
2010,06,02,12,52,6.90
2010,06,02,12,53,7.40
2010,06,02,12,54,6.30
2010,06,02,12,55,5.80
2010,06,02,12,56,9.60
2010,06,02,12,57,19.50
2010,06,02,12,58,14.80
2010,06,02,12,59,9.10
2010,06,02,13,00,15.30
2010,06,02,13,01,6.30
2010,06,02,13,02,9.60
2010,06,02,13,03,12.30
2010,06,02,13,04,10.60
2010,06,02,13,05,9.20
2010,06,02,13,06,12.50
2010,06,02,13,07,8.40
2010,06,02,13,08,7.10
2010,06,02,13,09,14.00
2010,06,02,13,10,14.00
2010,06,02,13,11,10.70
2010,06,02,13,12,14.00
2010,06,02,13,13,11.60
2010,06,02,13,14,15.10
2010,06,02,13,15,11.90
2010,06,02,13,16,19.90
2010,06,02,13,17,11.00
2010,06,02,13,18,16.80
2010,06,02,13,19,15.90
2010,06,02,13,20,9.40
2010,06,02,13,21,6.20
2010,06,02,13,22,6.60
2010,06,02,13,23,7.60
2010,06,02,13,24,11.10
2010,06,02,13,25,9.70
2010,06,02,13,26,9.40
2010,06,02,13,27,5.60
2010,06,02,13,28,5.90
2010,06,02,13,29,7.70
2010,06,02,13,30,6.10
2010,06,02,13,31,8.00
2010,06,02,13,32,5.30
2010,06,02,13,33,10.40
2010,06,02,13,34,12.00
2010,06,02,13,35,5.50
2010,06,02,13,36,8.90
2010,06,02,13,37,9.50
2010,06,02,13,38,5.30
2010,06,02,13,39,9.10
2010,06,02,13,40,8.80
2010,06,02,13,41,11.00
2010,06,02,13,42,16.30
2010,06,02,13,43,12.50
2010,06,02,13,44,12.50
2010,06,02,13,45,14.20
2010,06,02,13,46,18.50
2010,06,02,13,47,15.20
2010,06,02,13,48,15.80
2010,06,02,13,49,13.30
2010,06,02,13,50,11.10
2010,06,02,13,51,19.50
2010,06,02,13,52,15.80
2010,06,02,13,53,10.30
2010,06,02,13,54,20.20
2010,06,02,13,55,13.00
2010,06,02,13,56,12.20
2010,06,02,13,57,9.80
2010,06,02,13,58,18.00
2010,06,02,13,59,13.70
2010,06,02,14,00,10.80
2010,06,02,14,01,12.40
2010,06,02,14,02,13.00
2010,06,02,14,03,20.00
2010,06,02,14,04,11.90
2010,06,02,14,05,13.90
2010,06,02,14,06,15.20
2010,06,02,14,07,12.60
2010,06,02,14,08,20.80
2010,06,02,14,09,16.00
2010,06,02,14,10,11.20
2010,06,02,14,11,17.40
2010,06,02,14,12,9.70
2010,06,02,14,13,18.00
2010,06,02,14,14,13.30
2010,06,02,14,15,15.40
2010,06,02,14,16,18.80
2010,06,02,14,17,18.10
2010,06,02,14,18,9.40
2010,06,02,14,19,13.40
2010,06,02,14,20,16.90
2010,06,02,14,21,25.70
2010,06,02,14,22,22.40
2010,06,02,14,23,16.10
2010,06,02,14,24,7.00
2010,06,02,14,25,17.00
2010,06,02,14,26,17.30
2010,06,02,14,27,10.30
2010,06,02,14,28,19.10
2010,06,02,14,29,11.10
2010,06,02,14,30,10.30
2010,06,02,14,31,12.10
2010,06,02,14,32,13.00
2010,06,02,14,33,14.00
2010,06,02,14,34,20.90
2010,06,02,14,35,22.30
2010,06,02,14,36,21.40
2010,06,02,14,37,16.90
2010,06,02,14,38,15.00
2010,06,02,14,39,11.40
2010,06,02,14,40,17.50
2010,06,02,14,41,10.60
2010,06,02,14,42,12.00
2010,06,02,14,43,15.30
2010,06,02,14,44,10.30
2010,06,02,14,45,16.50
2010,06,02,14,46,20.50
2010,06,02,14,47,21.50
2010,06,02,14,48,21.90
2010,06,02,14,49,14.10
2010,06,02,14,50,20.80
2010,06,02,14,51,19.40
2010,06,02,14,52,14.40
2010,06,02,14,53,14.30
2010,06,02,14,54,18.90
2010,06,02,14,55,12.00
2010,06,02,14,56,12.70
2010,06,02,14,57,12.30
2010,06,02,14,58,16.70
2010,06,02,14,59,13.50
2010,06,02,15,00,23.40
2010,06,02,15,01,24.20
2010,06,02,15,02,11.30
2010,06,02,15,03,13.50
2010,06,02,15,04,16.50
2010,06,02,15,05,22.40
2010,06,02,15,06,25.00
2010,06,02,15,07,12.80
2010,06,02,15,08,11.30
2010,06,02,15,09,26.50
2010,06,02,15,10,21.30
2010,06,02,15,11,12.80
2010,06,02,15,12,14.20
2010,06,02,15,13,17.90
2010,06,02,15,14,24.50
2010,06,02,15,15,24.00
2010,06,02,15,16,13.40
2010,06,02,15,17,21.10
2010,06,02,15,18,13.90
2010,06,02,15,19,25.70
2010,06,02,15,20,23.20
2010,06,02,15,21,25.10
2010,06,02,15,22,30.50
2010,06,02,15,23,24.30
2010,06,02,15,24,22.20
2010,06,02,15,25,19.60
2010,06,02,15,26,22.00
2010,06,02,15,27,30.70
2010,06,02,15,28,20.80
2010,06,02,15,29,21.30
2010,06,02,15,30,14.90
2010,06,02,15,31,22.30
2010,06,02,15,32,21.70
2010,06,02,15,33,25.20
2010,06,02,15,34,19.70
2010,06,02,15,35,21.20
2010,06,02,15,36,23.30
2010,06,02,15,37,15.50
2010,06,02,15,38,22.30
2010,06,02,15,39,14.10
2010,06,02,15,40,17.90
2010,06,02,15,41,19.60
2010,06,02,15,42,17.30
2010,06,02,15,43,24.00
2010,06,02,15,44,21.70
2010,06,02,15,45,24.50
2010,06,02,15,46,19.00
2010,06,02,15,47,18.10
2010,06,02,15,48,19.70
2010,06,02,15,49,23.10
2010,06,02,15,50,16.60
2010,06,02,15,51,18.90
2010,06,02,15,52,28.40
2010,06,02,15,53,26.00
2010,06,02,15,54,32.90
2010,06,02,15,55,24.00
2010,06,02,15,56,30.80
2010,06,02,15,57,28.20
2010,06,02,15,58,16.70
2010,06,02,15,59,21.30
2010,06,02,16,00,37.80
2010,06,02,16,01,20.70
2010,06,02,16,02,21.20
2010,06,02,16,03,13.00
2010,06,02,16,04,14.20
2010,06,02,16,05,19.20
2010,06,02,16,06,19.80
2010,06,02,16,07,22.40
2010,06,02,16,08,15.60
2010,06,02,16,09,17.90
2010,06,02,16,10,19.80
2010,06,02,16,11,18.00
2010,06,02,16,12,26.20
2010,06,02,16,13,20.30
2010,06,02,16,14,20.00
2010,06,02,16,15,17.70
2010,06,02,16,16,15.90
2010,06,02,16,17,25.40
2010,06,02,16,18,30.80
2010,06,02,16,19,22.70
2010,06,02,16,20,25.90
2010,06,02,16,21,16.50
2010,06,02,16,22,13.40
2010,06,02,16,23,14.00
2010,06,02,16,24,18.20
2010,06,02,16,25,22.20
2010,06,02,16,26,17.20
2010,06,02,16,27,19.50
2010,06,02,16,28,21.80
2010,06,02,16,29,27.40
2010,06,02,16,30,23.90
2010,06,02,16,31,22.50
2010,06,02,16,32,22.30
2010,06,02,16,33,14.90
2010,06,02,16,34,18.70
2010,06,02,16,35,19.50
2010,06,02,16,36,11.70
2010,06,02,16,37,15.90
2010,06,02,16,38,25.80
2010,06,02,16,39,18.90
2010,06,02,16,40,24.50
2010,06,02,16,41,14.20
2010,06,02,16,42,12.70
2010,06,02,16,43,18.60
2010,06,02,16,44,24.00
2010,06,02,16,45,10.70
2010,06,02,16,46,13.30
2010,06,02,16,47,12.70
2010,06,02,16,48,25.50
2010,06,02,16,49,29.70
2010,06,02,16,50,17.70
2010,06,02,16,51,29.10
2010,06,02,16,52,22.30
2010,06,02,16,53,18.30
2010,06,02,16,54,17.90
2010,06,02,16,55,32.20
2010,06,02,16,56,31.20
2010,06,02,16,57,22.60
2010,06,02,16,58,22.60
2010,06,02,16,59,24.10
2010,06,02,17,00,24.10
2010,06,02,17,01,17.90
2010,06,02,17,02,25.90
2010,06,02,17,03,25.30
2010,06,02,17,04,32.20
2010,06,02,17,05,24.10
2010,06,02,17,06,18.80
2010,06,02,17,07,28.50
2010,06,02,17,08,14.00
2010,06,02,17,09,25.90
2010,06,02,17,10,22.90
2010,06,02,17,11,21.70
2010,06,02,17,12,30.00
2010,06,02,17,13,29.90
2010,06,02,17,14,16.00
2010,06,02,17,15,15.80
2010,06,02,17,16,25.50
2010,06,02,17,17,30.90
2010,06,02,17,18,28.40
2010,06,02,17,19,17.00
2010,06,02,17,20,24.10
2010,06,02,17,21,18.20
2010,06,02,17,22,28.80
2010,06,02,17,23,30.00
2010,06,02,17,24,19.60
2010,06,02,17,25,30.70
2010,06,02,17,26,20.50
2010,06,02,17,27,15.20
2010,06,02,17,28,17.30
2010,06,02,17,29,27.40
2010,06,02,17,30,29.50
2010,06,02,17,31,24.00
2010,06,02,17,32,31.20
2010,06,02,17,33,24.20
2010,06,02,17,34,24.10
2010,06,02,17,35,29.10
2010,06,02,17,36,23.10
2010,06,02,17,37,22.20
2010,06,02,17,38,26.70
2010,06,02,17,39,24.50
2010,06,02,17,40,24.60
2010,06,02,17,41,20.70
2010,06,02,17,42,18.20
2010,06,02,17,43,21.50
2010,06,02,17,44,19.90
2010,06,02,17,45,31.20
2010,06,02,17,46,20.30
2010,06,02,17,47,20.30
2010,06,02,17,48,31.80
2010,06,02,17,49,40.40
2010,06,02,17,50,24.40
2010,06,02,17,51,25.80
2010,06,02,17,52,15.50
2010,06,02,17,53,29.90
2010,06,02,17,54,15.30